Alexandria, MN

4:48 AM CDT on May 25, 2018 (GMT -0500)
Chandler

Weather History for KAXN - January, 2014

Change the Weather History Date:

Tuesday, January 21, 2014

  Actual Average Record
Temperature  
Mean Temperature -11 °F -  
Max Temperature 3 °F 22 °F 42 °F (1981)
Min Temperature -25 °F 3 °F -36 °F (1954)
Degree Days  
Heating Degree Days 76    
Moisture  
Dew Point -12 °F    
Average Humidity 77    
Maximum Humidity 88    
Minimum Humidity 65    
Precipitation  
Precipitation 0.00 in - - ()
Sea Level Pressure  
Sea Level Pressure 30.21 in    
Wind  
Wind Speed 8 mph (South)    
Max Wind Speed 14 mph    
Max Gust Speed -    
Visibility 5 miles    
Events Snow    
Averages and records for this station are not official NWS values.
T = Trace of Precipitation, MM = Missing Value Source: NWS Daily Summary

Daily Weather History Graph

Daily Weather History Graph

Search for Another Location

Airport or City:

Astronomy

Jan. 21, 2014 Rise Set
Actual Time 7:54 AM CST 5:11 PM CST
Civil Twilight 7:21 AM CST 5:44 PM CST
Nautical Twilight 6:45 AM CST 6:20 PM CST
Astronomical Twilight 6:09 AM CST 6:56 PM CST
Moon 11:05 PM CST (1/21) 10:06 AM CST (1/21)
Length of Visible Light 10h 22m
Length of Day
9h 16m
Waning Gibbous, 74% of the Moon is Illuminated
Jan 21
Waning Gibbous
Jan 23
Last Quarter
Jan 30
New
Feb 6
First Quarter
Feb 14
Full

Hourly Weather History & Observations

Time (CST) Temp. Windchill Dew Point Humidity Pressure Visibility Wind Dir Wind Speed Gust Speed Precip Events Conditions
12:53 AM -20.0 °F -38.6 °F -26.0 °F 74% 30.59 in 10.0 mi WNW 8.1 mph - N/A   Clear
1:53 AM -20.9 °F -39.7 °F -27.9 °F 70% 30.59 in 10.0 mi West 8.1 mph - N/A   Clear
2:53 AM -23.1 °F -40.7 °F -29.0 °F 74% 30.58 in 10.0 mi West 6.9 mph - N/A   Clear
3:53 AM -25.1 °F - -29.9 °F 78% 30.56 in 10.0 mi Calm Calm - N/A   Clear
4:53 AM -22.0 °F - -27.0 °F 77% 30.51 in 10.0 mi Calm Calm - N/A   Clear
5:53 AM -23.1 °F -34.2 °F -29.0 °F 74% 30.52 in 10.0 mi NW 3.5 mph - N/A   Clear
6:53 AM -18.9 °F - -25.1 °F 74% 30.48 in 10.0 mi Calm Calm - N/A   Scattered Clouds
7:53 AM -16.1 °F - -20.9 °F 79% 30.47 in 10.0 mi Calm Calm - N/A   Mostly Cloudy
8:53 AM -14.1 °F -26.3 °F -18.9 °F 79% 30.43 in 10.0 mi SSE 4.6 mph - N/A   Overcast
9:53 AM -11.0 °F -27.6 °F -18.0 °F 71% 30.40 in 10.0 mi SSE 8.1 mph - N/A   Overcast
10:53 AM -9.9 °F -28.6 °F -17.0 °F 71% 30.38 in 10.0 mi South 10.4 mph - N/A   Overcast
11:53 AM -7.1 °F -25.0 °F -16.1 °F 65% 30.32 in 10.0 mi SSE 10.4 mph - N/A   Overcast
12:19 PM -5.8 °F -22.4 °F -14.8 °F 65% 30.16 in 2.0 mi South 9.2 mph - 0.00 in Snow Light Snow
12:33 PM -5.8 °F -23.4 °F -13.0 °F 71% 30.14 in 2.5 mi South 10.4 mph - 0.00 in Snow Light Snow
12:45 PM -5.8 °F -24.4 °F -11.2 °F 77% 30.12 in 1.2 mi SSE 11.5 mph - 0.00 in Snow Light Snow
12:53 PM -5.1 °F -24.3 °F -11.9 °F 72% 30.27 in 1.2 mi SSE 12.7 mph - 0.00 in Snow Light Snow
1:07 PM -4.0 °F -21.2 °F -11.2 °F 71% 30.11 in 0.8 mi SSE 10.4 mph - 0.00 in Snow Light Snow
1:15 PM -4.0 °F -21.2 °F -9.4 °F 78% 30.10 in 1.2 mi SSE 10.4 mph - 0.00 in Snow Light Snow
1:22 PM -4.0 °F -21.2 °F -9.4 °F 78% 30.09 in 1.5 mi SSE 10.4 mph - 0.00 in Snow Light Snow
1:31 PM -4.0 °F -22.1 °F -9.4 °F 78% 30.09 in 1.0 mi South 11.5 mph - 0.00 in Snow Light Snow
1:53 PM -2.9 °F -19.8 °F -9.0 °F 75% 30.22 in 1.0 mi SSE 10.4 mph - 0.00 in Snow Light Snow
2:02 PM -2.2 °F -19.9 °F -9.4 °F 71% 30.06 in 0.8 mi SSE 11.5 mph - 0.00 in Snow Light Snow
2:26 PM -2.2 °F -18.0 °F -7.6 °F 78% 30.04 in 1.0 mi South 9.2 mph - 0.00 in Snow Light Snow
2:53 PM -2.0 °F -20.5 °F -7.1 °F 79% 30.18 in 1.0 mi SSE 12.7 mph - 0.00 in Snow Light Snow
3:26 PM -0.4 °F -15.7 °F -5.8 °F 78% 30.02 in 0.8 mi SSE 9.2 mph - 0.00 in Snow Light Snow
3:43 PM -0.4 °F -15.7 °F -5.8 °F 78% 30.01 in 1.0 mi SE 9.2 mph - 0.00 in Snow Light Snow
3:51 PM -0.4 °F -17.6 °F -5.8 °F 78% 30.01 in 2.0 mi SSE 11.5 mph - 0.00 in Snow Light Snow
3:53 PM -0.9 °F -18.3 °F -6.0 °F 79% 30.16 in 3.0 mi SSE 11.5 mph - 0.00 in Snow Light Snow
4:53 PM -0.0 °F -15.3 °F -5.1 °F 79% 30.16 in 2.0 mi South 9.2 mph - 0.00 in Snow Light Snow
5:32 PM -0.4 °F -18.4 °F -5.8 °F 78% 30.00 in 4.0 mi South 12.7 mph - 0.00 in Snow Light Snow
5:50 PM -0.4 °F -16.7 °F -4.0 °F 85% 30.00 in 5.0 mi South 10.4 mph - 0.00 in Snow Light Snow
5:53 PM -0.0 °F -15.3 °F -4.0 °F 83% 30.15 in 6.0 mi South 9.2 mph - 0.00 in Snow Light Snow
6:53 PM 1.0 °F -15.8 °F -4.0 °F 79% 30.12 in 4.0 mi South 11.5 mph - 0.00 in Snow Light Snow
7:53 PM 1.9 °F -13.8 °F -2.9 °F 80% 30.10 in 4.0 mi SSW 10.4 mph - 0.00 in Snow Light Snow
8:53 PM 1.9 °F -12.9 °F -2.0 °F 83% 30.09 in 4.0 mi SW 9.2 mph - 0.00 in Snow Light Snow
9:30 PM 3.2 °F -9.1 °F -0.4 °F 85% 29.94 in 7.0 mi WSW 6.9 mph - 0.00 in Snow Light Snow
9:53 PM 3.0 °F -8.0 °F -0.0 °F 87% 30.07 in 10.0 mi West 5.8 mph - 0.00 in   Overcast
10:53 PM 3.9 °F -9.4 °F 1.0 °F 88% 30.06 in 10.0 mi WNW 8.1 mph - N/A   Overcast
11:53 PM 3.9 °F -13.7 °F -0.9 °F 80% 30.07 in 10.0 mi NW 13.8 mph - N/A   Mostly Cloudy